Location: Lixville
(37.5770°N, 89.9118°W)
Time: 14:39:21
(UTC+00:00)

Courier 1B Rocket - Pass Details

Date: 10 November 2024
Orbit: 920 x 1201 km, 28.2° (Epoch: 02 December)

Event Time Altitude Azimuth Distance (km) Brightness Sun altitude
Rises 23:05:06 0° 239° (WSW) 3,664 10.3 -3.2°
Reaches altitude 10° 23:08:05 10° 230° (SW) 2,680 8.7 -3.8°
Maximum altitude 23:13:37 31° 170° (S) 1,573 6.2 -4.8°
Drops below altitude 10° 23:19:00 10° 110° (ESE) 2,605 6.8 -5.9°
Enters shadow 23:21:04 - 102° (ESE) 3,279 7.2 -6.2°
